📊 Raw Sensor Data

Showing records 45026 to 45050 of 85,046 total

ID Distance (ft) Battery V Battery A Int Temp (°F) Int Humid (%) Ext Temp (°F) Solar V RSSI SNR Time Stamp
40033 16.0 3.97 0 69 40 68 5.10 -69 8 05/08/2025 10:00 AM
40032 16.0 3.97 0 68 41 68 5.10 -69 7 05/08/2025 09:45 AM
40031 16.0 4.02 0 66 41 65 5.10 -69 8 05/08/2025 09:30 AM
40030 16.0 3.97 0 65 41 64 5.10 -69 8 05/08/2025 09:15 AM
40029 16.0 3.97 0 64 41 63 5.10 -70 8 05/08/2025 09:00 AM
40028 16.0 3.97 0 62 41 63 5.10 -71 8 05/08/2025 08:45 AM
40027 16.0 3.97 0 62 41 64 5.10 -69 8 05/08/2025 08:30 AM
40026 15.9 3.97 0 61 41 65 5.10 -70 8 05/08/2025 08:15 AM
40025 16.0 3.97 0 59 40 63 5.10 -69 8 05/08/2025 08:00 AM
40024 15.9 4.05 0 56 40 64 5.10 -70 8 05/08/2025 07:45 AM
40023 15.9 3.97 0 55 40 62 5.10 -70 7 05/08/2025 07:30 AM
40022 15.9 4.02 15 52 40 64 4.50 -69 8 05/08/2025 07:15 AM
40021 15.8 3.99 -5 50 40 62 4.50 -70 8 05/08/2025 07:00 AM
40020 15.8 3.94 5 47 41 52 4.50 -70 8 05/08/2025 06:45 AM
40019 15.7 3.98 0 45 42 51 4.50 -70 8 05/08/2025 06:30 AM
40018 15.6 3.91 -7 45 41 47 4.50 -70 9 05/08/2025 06:15 AM
40017 15.7 3.96 -10 44 42 47 4.20 -70 9 05/08/2025 06:00 AM
40016 15.7 3.91 -5 45 42 46 0.40 -69 8 05/08/2025 05:45 AM
40015 15.7 3.91 -5 45 42 47 0.00 -69 8 05/08/2025 05:30 AM
40014 15.6 3.91 -5 45 42 47 0.00 -69 8 05/08/2025 05:15 AM
40013 15.7 3.91 -5 45 42 47 0.10 -70 7 05/08/2025 05:00 AM
40012 15.6 3.97 -5 45 42 47 0.00 -70 8 05/08/2025 04:45 AM
40011 15.7 3.91 -5 45 42 47 0.00 -69 8 05/08/2025 04:30 AM
40010 15.7 3.97 -5 45 42 46 0.00 -70 8 05/08/2025 04:15 AM
40009 15.6 3.91 -5 45 42 46 0.00 -69 8 05/08/2025 04:00 AM